sat.trackr.live / text

‹ back to catalog

STARLINK-31454

NORAD 59014 · 2024-036S

PAYLOAD ACTIVE UNKNOWN

§ Identity

Operator
Country
US
Launch date
2024-02-23
Launch site
AFWTR
Launch vehicle
Mass (kg)
RCS (m²)

Purposes: comms

External: N2YO · Heavens-Above · Gunter

§ Orbital elements

Epoch: 2026-09-20T16:34:56.099712Z

Period
94.01 min
Inclination
53.1587°
Eccentricity
0.0001081
Mean motion
15.31699012 rev/d
Perigee alt
470.0 km
Apogee alt
471.5 km
Semi-major
6,848.9 km
B*
1.0785e-5
RAAN
252.0205°
Arg perigee
96.3733°
Mean anomaly
263.7391°
Rev number
14,518

§ Raw data

STARLINK-314541 59014U 24036S   26263.69092708 -.00000030  00000+0  10785-4 0  99922 59014  53.1587 252.0205 0001081  96.3733 263.7391 15.31699012145184

JSON: /api/v1/satellites/59014 · /tle

For live sub-satellite position, see the globe view (requires WebGL).

§ Visibility from observer

Set your observer location to see the next 7 days of passes ≥ 10°. The values pass through the URL so the page stays shareable.

No JS? Fill the form by hand. The geolocation button needs JavaScript.